Regional Weather Roundup
Issued by NWS

Home | Current Version | Previous Version | Text Only | Print | Product List | Glossary On
Versions: 1 2 3 4 5 6 7 8 9 10 11 12 13 14 15 16 17 18 19 20 21 22 23 24 25 26 27 28 29 30 31 32 33 34 35 36 37 38 39 40 41 42 43 44 45 46 47 48 49 50
000
ASUS43 KMPX 200910
RWRMN
WEATHER ROUNDUP FOR MINNESOTA
NATIONAL WEATHER SERVICE TWIN CITIES/CHANHASSEN MN
300 AM CST SAT DEC 20 2014


NOTE: "FAIR" INDICATES FEW OR NO CLOUDS BELOW 12,000 FEET WITH NO
SIGNIFICANT WEATHER AND/OR OBSTRUCTIONS TO VISIBILITY. N/A MEANS
CURRENT SKY AND/OR WEATHER CONDITIONS ARE NOT AVAILABLE.

MNZ060>063-068>070-201000-
   Twin Cities Metro

CITY           SKY/WX    TMP DP  RH WIND       PRES   REMARKS
TWIN CITIES    CLOUDY    29  25  85 SE9       30.17S FOG     WCI  20
ST PAUL        CLOUDY    29  25  85 SE9       30.18F WCI  20
CRYSTAL        CLOUDY    30  26  85 S10       30.15S WCI  21
BLAINE         CLOUDY    30  28  93 S8        30.15S WCI  23
LAKEVILLE      MOCLDY    28  25  86 SE5       30.16S WCI  23
EDEN PRAIRIE   CLOUDY    30  26  85 S10       30.14F FOG     WCI  21
SOUTH ST PAUL  CLOUDY    30  26  84 S5        30.17F WCI  25
LAKE ELMO      CLOUDY    30  27  86 S9        30.18S WCI  22
$$
MNZ001>005-007-008-013>017-022>024-027-028-201000-
   Northwest Minnesota

CITY           SKY/WX    TMP DP  RH WIND       PRES   REMARKS
BEMIDJI        CLOUDY    27  26  99 SE3       30.02S FOG
HALLOCK        CLOUDY    28  27  93 CALM      30.00S FOG
ROSEAU         CLOUDY    28  23  80 SE6       30.02S HAZE    WCI  22
WARROAD        CLOUDY    27  21  80 S6        30.03S FOG     WCI  20
THIEF RVR FALL CLOUDY    30  28  93 S8        30.02R WCI  23
CROOKSTON      CLOUDY    30  28  93 SW8       30.03R FOG     WCI  23
FOSSTON        CLOUDY    28  27  93 S10       30.02S FOG     WCI  19
DETROIT LAKES  CLOUDY    30  30 100 S12       30.03S FOG     WCI  21
MOORHEAD       CLOUDY    30  30 100 S7        30.05R WCI  23
PARK RAPIDS    CLOUDY    30  28  92 S10       30.03R FOG     WCI  21
MAHNOMEN       CLOUDY    30  29  98 S12       30.02R FOG     WCI  20
$$
MNZ006-009>011-018-025>026-201000-
   North Central Minnesota

CITY           SKY/WX    TMP DP  RH WIND       PRES   REMARKS
BAUDETTE       LGT SNOW  25  23  92 CALM      30.03S FOG
FLAG ISLAND    CLOUDY    25  23  93 S10       30.02S FOG     WCI  15
INTL FALLS     LGT SNOW  25  22  88 SE6       30.06S FOG     WCI  18
WASKISH        LGT SNOW  27  25  93 CALM      30.04S
BIG FORK       LGT SNOW  27  25  93 SE5       30.07R WCI  21
LONGVILLE      LGT SNOW  28  27  93 S7        30.05F WCI  21
GRAND RAPIDS   CLOUDY    27  25  93 SE8       30.06S WCI  18
CRANE LAKE     LGT SNOW  25  23  93 CALM      30.12R VSB 3/4
ORR            LGT SNOW  25  21  86 SE3       30.06R
COOK           LGT SNOW  25  23  93 SE3       30.09R
WALKER         CLOUDY    28  28  98 S6        30.04R FOG     WCI  22
$$
MNZ012-019>021-037-201000-
   Northeast Minnesota

CITY           SKY/WX    TMP DP  RH WIND       PRES   REMARKS
DULUTH         LGT SNOW  25  22  88 S7        30.12R FOG     WCI  17
ELY            LGT SNOW  25  23  93 SE6       30.10S WCI  18
HIBBING        LGT SNOW  26  22  84 S6        30.09R FOG     WCI  19
EVELETH        LGT SNOW  27  25  93 S7        30.11R WCI  19
DULUTH HARBOR  CLOUDY    28  25  86 CALM      30.18S
TWO HARBORS    CLOUDY    28  25  86 S5        30.13S WCI  23
SILVER BAY     CLOUDY    28  27  93 CALM      30.13S FOG
GRAND MARAIS     N/A     32  26  78 S7        30.18S WCI  26
G MARAIS ARPRT   N/A     23  19  86 CALM      30.12S FOG
$$
MNZ029>031-032-039>041-046>048-054>057-064-201000-
   West Central Minnesota

CITY           SKY/WX    TMP DP  RH WIND       PRES   REMARKS
FERGUS FALLS   CLOUDY    30  28  93 SW9       30.08R FOG     WCI  22
WHEATON        CLOUDY    28  27  93 S3        30.08R
MORRIS         MOCLDY    30  28  93 S12       30.05S FOG     WCI  21
ALEXANDRIA     CLOUDY    30  27  88 S13       30.06R FOG     WCI  20
ELBOW LAKE     CLOUDY    30  29  96 S14       30.05R FOG     WCI  19
WADENA         CLOUDY    28  28 100 S9        30.05R FOG     WCI  20
GLENWOOD       CLOUDY    30  28  93 S15       30.07S FOG     WCI  19
APPLETON       CLOUDY    32  28  86 S7        30.07R WCI  26
BENSON         CLOUDY    30  28  93 SW8       30.07S FOG     WCI  23
ORTONVILLE     CLOUDY    30  27  86 S7        30.05S WCI  23
MADISON        CLEAR     34  32  93 S7        30.06S WCI  28
WILLMAR        CLOUDY    32  28  86 S5        30.10S FOG     WCI  27
$$
MNZ033>034-036-042>043-049>051-058-059-201000-
   Central Minnesota

CITY           SKY/WX    TMP DP  RH WIND       PRES   REMARKS
ST CLOUD       CLOUDY    32  28  85 S10       30.11S FOG     WCI  24
SAUK CENTRE    CLOUDY    30  28  92 S13G20    30.09R FOG     WCI  20
PAYNESVILLE    CLOUDY    29  28  96 SE8       30.09S FOG     WCI  21
AITKIN         CLOUDY    30  25  80 SE8       30.08S HAZE    WCI  23
PINE RIVER     CLOUDY    28  28 100 S8        30.09S FOG     WCI  20
BRAINERD       CLOUDY    29  28  96 S10       30.08S FOG     WCI  20
STAPLES        CLOUDY    28  28 100 S10       30.06R FOG     WCI  19
LONG PRAIRIE   CLOUDY    30  28  93 S13       30.07S FOG     WCI  20
LITTLE FALLS   CLOUDY    30  28  93 S6        30.09S FOG     WCI  24
LITCHFIELD     CLOUDY    32  32 100 S3        30.11S FOG
BUFFALO        CLOUDY    30  28  92 SE7       30.14S FOG     WCI  23
MAPLE LAKE     CLOUDY    32  31  97 S9        30.13S FOG     WCI  24
$$
MNZ037-044-045-052-053-201000-
   East Central Minnesota

CITY           SKY/WX    TMP DP  RH WIND       PRES   REMARKS
PRINCETON      CLOUDY    30  28  93 SE8       30.13S FOG     WCI  23
MORA           CLOUDY    27  25  93 S6        30.15S WCI  20
CAMBRIDGE      CLOUDY    30  23  74 SE6       30.12F HAZE    WCI  24
RUSH CITY      CLOUDY    28  25  87 S7        30.15S WCI  21
MOOSE LAKE     CLOUDY    28  25  86 S3        30.11S
HINCKLEY       CLOUDY    30  27  86 CALM      30.14S
CLOQUET        CLOUDY    25  23  93 SE3       30.12R FOG
MCGREGOR       CLOUDY    28  28 100 S7        30.10S WCI  21
$$
MNZ071>073-080-081-089-090-097-098-201000-
   Southwest Minnesota

CITY           SKY/WX    TMP DP  RH WIND       PRES   REMARKS
MONTEVIDEO     CLOUDY    30  30 100 SW9       30.09R FOG     WCI  22
GRANITE FALLS  CLOUDY    31  28  89 S13       30.10S WCI  21
CANBY          CLOUDY    31  29  92 S6        30.07R WCI  26
MARSHALL       CLOUDY    30  27  86 SW12      30.08S WCI  21
REDWOOD FALLS  CLOUDY    32  28  85 S10       30.10S FOG     WCI  24
OLIVIA         CLOUDY    32  30  93 S9        30.10R FOG     WCI  24
PIPESTONE      CLOUDY    30  28  93 S5        30.04R FOG     WCI  25
WINDOM         CLOUDY    30  28  93 S6        30.10R FOG     WCI  24
WORTHINGTON    CLOUDY    28  28 100 S9        30.10R WCI  20
JACKSON        CLOUDY    32  28  86 S9        30.11S FOG     WCI  24
TRACY          CLOUDY    32  30  91 S9        30.08S FOG     WCI  24
SLAYTON        CLOUDY    30  30  99 S6        30.06F FOG     WCI  24
$$
MNZ065>067-074>077-082>085-091>093-201000-
   South Central Minnesota

CITY           SKY/WX    TMP DP  RH WIND       PRES   REMARKS
MANKATO        CLOUDY    30  27  86 S9        30.14F WCI  22
NEW ULM        CLOUDY    30  30 100 S8        30.13R FOG     WCI  23
ST JAMES       CLOUDY    32  30  93 S10       30.14S FOG     WCI  24
FAIRMONT       CLOUDY    30  25  80 S10       30.13R WCI  21
GLENCOE        CLOUDY    32  31  99 S5        30.13R FOG     WCI  27
FARIBAULT      CLOUDY    28  27  93 S7        30.16S FOG     WCI  21
OWATONNA       PTCLDY    28  27  93 SE10      30.16S FOG     WCI  19
WASECA         CLOUDY    30  28  93 S12       30.17R FOG     WCI  21
ALBERT LEA     CLOUDY    28  28 100 S8        30.15S FOG     WCI  20
$$
MNZ078>079-086>088-094>096-201000-
   Southeast Minnesota

CITY           SKY/WX    TMP DP  RH WIND       PRES   REMARKS
ROCHESTER      CLOUDY    28  23  81 S9        30.17S WCI  19
RED WING       CLOUDY    30  25  80 SE5       30.19S WCI  25
STANTON        CLOUDY    31  26  83 S7        30.16S WCI  24
DODGE CENTER   CLOUDY    28  27  93 S10       30.16S FOG     WCI  19
WINONA         CLOUDY    30  25  80 SE5       30.22F WCI  25
AUSTIN         MIX PCPN  27  27 100 S7        30.17S WCI  19
PRESTON        CLOUDY    26  23  87 S6        30.19S WCI  20
$$
ABBREVIATIONS USED IN REMARKS
   TC - TEMPERATURES IN CELSIUS
  WCI - WIND CHILL INDEX
   HX - HEAT INDEX
  VSB - VISIBILITY
$$


USA.gov is the U.S. government's official web portal to all federal, state and local government web resources and services.